www.pogodaiklimat.ru

Погода и климат >> Архив погоды >> Пакистан >> Faisal Abad


ПОГОДА в Faisal Abad

  • Прогноз погоды в Faisal Abad
  • Монитор погоды в Faisal Abad
  • Климат города

АРХИВ ПОГОДЫ в Faisal Abad

Время (UTC), дата Ветер
(напр.,м/с)
 
Видим.   Явления Облачность Т
(С)
Тd
(С)
f
(%)
Тe
(С)
Тes
(С)
Комфортность P
(гПа)
Po
(гПа)
Тmin
(С)
Tmax
(С)
R
(мм)
R24
(мм)
S
(см)
00 11.11 штиль 0 2000 м дым 9/0
[Ac As]
+16.5 +12.0 75 +16 +16 1015.3 1000.0
03 11.11 штиль 0 1000 м дым 10/10 300 м
[Sc As trans]
+17.5 +12.1 71 +18 +18 1017.1 1000.0 +13.3
06 11.11 штиль 0 2000 м дым 9/5 300 м
[Sc As op]
+22.0 +11.3 51 +24 +26 комфорт 1018.2 1000.0
09 11.11 СВ 1 2000 м мгла 6/4 300 м
[Sc Ac trans]
+25.5 +9.1 35 +26 +30 жарко 1015.2 1000.0
12 11.11 штиль 0 2000 м мгла 6/4 300 м
[Sc Ac trans]
+25.0 +10.8 41 +26 +26 жарко 1014.4 1000.0 +26.1
15 11.11 штиль 0 2000 м дым 4/0
[Ac trans]
+19.0 +11.8 63 +20 +20 1016.2 1000.0
18 11.11 штиль 0 2000 м дым 4/0
[Ac trans]
+16.5 +12.0 75 +16 +16 1016.6 1000.0
21 11.11 штиль 0 2000 м дым 4/0
[Ac trans]
+15.5 +11.8 79 +15 +15 1015.6 1000.0
00 12.11 штиль 0 1000 м дымка 4/0
[Ac trans]
+15.0 +12.3 84 +15 +15 1014.9 1000.0
03 12.11 штиль 0 1000 м дым 6/4 300 м
[Sc Ac trans]
+15.5 +11.8 79 +15 +16 1015.8 1000.0 +13.5
06 12.11 штиль 0 1000 м дым 4/0
[Ac trans]
+22.0 +13.4 58 +25 +33 комфорт 1015.6 1000.0
09 12.11 штиль 0 2000 м мгла 4/0
[Ac trans]
+25.0 +9.8 38 +26 +32 жарко 1012.9 1000.0
12 12.11 СВ 1 2000 м мгла 4/0
[Ac trans]
+23.0 +11.5 48 +25 +25 комфорт 1012.0 1000.0 +26.1
15 12.11 штиль 0 2000 м дым ясно +19.0 +11.8 63 +20 +20 1012.7 1000.0
18 12.11 штиль 0 2000 м дым ясно +16.5 +12.0 75 +16 +16 1013.4 1000.0
21 12.11 С 1 2000 м дым 4/0
[Ac trans]
+16.5 +12.0 75 +17 +17 1012.7 1000.0
00 13.11 штиль 0 2000 м в посл. час дождь 10/10 300 м
[Sc As op]
+16.5 +12.9 79 +16 +16 1011.2 1000.0 0.0
03 13.11 СЗ 1 1000 м дым {дождь} 8/0
[Ac As]
+17.0 +12.5 75 +18 +18 1012.6 1000.0 +15.3
06 13.11 штиль 0 2000 м дым ясно +24.0 +12.8 50 +26 +37 жарко 1012.7 1000.0
09 13.11 СВ 1 4000 м мгла ясно +26.0 +8.6 33 +26 +34 жарко 1010.7 1000.0
12 13.11 СВ 1 4000 м мгла 3/0
[Ci fib]
+24.0 +8.1 36 +24 +25 комфорт 1009.9 1000.0 +26.5
15 13.11 СВ 2 4000 м дым 3/0
[Ac trans]
+20.0 +10.9 56 +22 +22 комфорт 1011.0 1000.0
18 13.11 СВ 3 4000 м дым 5/0
[Ac trans]
+19.0 +10.8 59 +20 +20 1011.7 1000.0
21 13.11 С 2 4000 м дым 5/0
[Ac trans]
+15.0 +12.3 84 +15 +15 1011.5 1000.0
00 14.11 С 1 4000 м дым 8/5 300 м
[Sc Ac trans]
+14.5 +11.7 83 +15 +15 1011.9 1000.0
03 14.11 СВ 1 2000 м дым {дождь} 8/5 300 м
[Sc Ac As]
+14.5 +11.7 83 +16 +16 1012.7 1000.0 +13.9 0.0
06 14.11 СЗ 1 2000 м дым {дождь} 6/4 300 м
[Sc Ac trans]
+21.0 +11.1 53 +25 +29 комфорт 1013.0 1000.0
09 14.11 СВ 2 4000 м дым 4/0
[Ac trans]
+24.0 +10.6 43 +25 +30 комфорт 1010.9 1000.0
12 14.11 СВ 2 4000 м мгла 6/4 300 м
[Sc Ac trans]
+23.0 +10.4 45 +25 +25 комфорт 1011.8 1000.0 +24.3
15 14.11 СВ 1 4000 м дым ясно +18.0 +11.7 67 +19 +19 1013.7 1000.0
18 14.11 штиль 0 4000 м дым ясно +16.0 +11.4 74 +16 +16 1015.2 1000.0
21 14.11 штиль 0 4000 м дым ясно +14.5 +11.7 83 +14 +14 1016.3 1000.0
00 15.11 штиль 0 2000 м дымка ясно +12.5 +10.6 88 +12 +12 1016.7 1000.0
03 15.11 штиль 0 2000 м дымка ясно +14.5 +12.7 89 +14 +15 1018.3 1000.0 +12.1
06 15.11 СВ 1 2000 м дым ясно +21.5 +10.6 50 +23 +32 комфорт 1020.0 1000.0
09 15.11 С 1 4000 м мгла ясно +24.5 +10.1 40 +25 +33 комфорт 1017.9 1000.0
12 15.11 С 1 4000 м мгла 3/0
[Ci fib]
+23.0 +11.5 48 +25 +25 комфорт 1017.2 1000.0 +24.7
15 15.11 штиль 0 4000 м дым ясно +18.0 +12.7 71 +18 +18 1018.1 1000.0
18 15.11 штиль 0 4000 м дым ясно +15.0 +12.3 84 +15 +15 1018.4 1000.0
21 15.11 штиль 0 4000 м дым ясно +13.5 +10.6 83 +13 +13 1017.5 1000.0
00 16.11 штиль 0 4000 м дым ясно +12.5 +10.6 88 +12 +12 1016.4 1000.0
03 16.11 штиль 0 2000 м дымка ясно +14.0 +11.2 83 +14 +15 1017.2 1000.0 +12.1
06 16.11 СЗ 1 4000 м дым 4/0
[Ci fib]
+22.0 +11.3 51 +24 +32 комфорт 1017.5 1000.0
09 16.11 СЗ 2 4000 м мгла ясно +25.5 +10.4 39 +26 +33 жарко 1013.4 1000.0
12 16.11 штиль 0 4000 м мгла ясно +24.0 +11.7 46 +26 +26 жарко 1013.3 1000.0 +25.9
15 16.11 штиль 0 4000 м дым ясно +18.0 +13.6 75 +18 +18 1014.0 1000.0
18 16.11 штиль 0 4000 м дым ясно +16.0 +11.4 74 +16 +16 1014.7 1000.0
21 16.11 СЗ 1 4000 м дым ясно +15.5 +11.8 79 +16 +16 1014.0 1000.0
00 17.11 штиль 0 2000 м дымка ясно +13.5 +10.6 83 +13 +13 1013.7 1000.0
03 17.11 штиль 0 2000 м дымка ясно +14.0 +11.2 83 +14 +15 1014.3 1000.0 +11.1
06 17.11 З 2 2000 м дым 4/0
[Ci fib]
+23.0 +12.6 52 +26 +33 жарко 1014.6 1000.0
09 17.11 З 2 4000 м мгла 8/0
[Ac trans Ci fib]
+25.0 +10.8 41 +26 +31 жарко 1011.6 1000.0
12 17.11 штиль 0 4000 м мгла 5/0
[Ci fib]
+25.0 +12.0 44 +27 +27 жарко 1010.5 1000.0 +26.3
15 17.11 штиль 0 4000 м дым 3/0
[Ci fib]
+18.5 +13.2 71 +19 +19 1011.8 1000.0
18 17.11 штиль 0 4000 м дым ясно +15.0 +12.3 84 +15 +15 1013.1 1000.0

 

Местоположение метеостанции Faisal Abad (Пакистан): широта 31.43 долгота 73.10 высота над уровнем моря 184 м.

В архиве по умолчанию представлена погода в Faisal Abad за последнюю неделю. Архивные данные за месяц целиком и за предыдущие месяцы, начиная с января 2011 года, Вы можете получить, выбрав интересующий диапазон дат из раскрывающегося списка и нажав кнопку "Ввод!".


*Определитесь, кто Вы:
робот инопланетянин человек

Внимание! Время в таблицах - всемирное. Для получения местного времени необходимо прибавить поправку, которая в Faisal Abad равна 5 ч.

Смотрите также архив погоды в соседних городах и на ближайших метеорологических станциях:

Погода в Sargodha (Пакистан) (80 км)
Погода в Raifiqui Airbase (Пакистан) (112 км)
Погода в Lahore City (Пакистан) (117 км)
Погода в Bahawalnagar (Пакистан) (165 км)
Погода в Amritsar (Punjab, Индия) (169 км)
Погода в Jhelum (Пакистан) (177 км)
Погода в Sialkot (Пакистан) (180 км)
Погода в Sri Ganganagar (Rajasthan, Индия) (183 км)
Погода в Mianwali (Пакистан) (194 км)
Погода в Multan (Пакистан) (210 км)

Пояснения к столбцам:

Ветер - указаны скорость ветра в м/с - средняя за 10 мин, порывы в срок и между сроками (в фигурных скобках) и направление, откуда дует ветер: С - северный, СВ - северо-восточный, В - восточный, ЮВ - юго-восточный, Ю - южный, ЮЗ - юго-западный, З - западный, СЗ - северо-западный.
Видимость - горизонтальная дальность видимости в метрах или километрах. При видимости от 1 до 10 км при отсутствии осадков обычно наблюдается дымка, при ухудшении видимости до 1 км и менее - туман. В сухую погоду видимость может ухудшаться дымом, пылью или мглою.
Явления - указаны атмосферные явления, наблюдавшиеся в срок или в последний час перед сроком; фигурными скобками обозначены явления, наблюдавшиеся между сроками (за 1-3 часа до срока); квадратными скобками обозначены град или гололедные отложения с указанием их диаметра в мм.
Облачность - указаны через наклонную черту общая и нижняя облачность в баллах и высота нижней границы облаков в метрах; квадратными скобками обозначены формы облаков: Ci - перистые, Cs - перисто-слоистые, Cc - перисто-кучевые, Ac - высококучевые, As - высокослоистые, Sc - слоисто-кучевые, Ns - слоисто-дождевые, Cu - кучевые, Cb - кучево-дождевые. Подробнее классификацию облаков см. в Атласе облаков (PDF).
T - Температура воздуха - температура, измеренная на высоте 2 м над землей.
Td - Температура точки росы - температура, при понижении до которой содержащийся в воздухе водяной пар достигнет насыщения.
f - Относительная влажность воздуха - влажноcть воздуха, измеренная на высоте 2 м над землей.
Te - Эффективная температура - температура, которую ощущает одетый по сезону человек в тени. Характеристика душности погоды. При расчете учитывается влияние влажности воздуха и скорости ветра на теплоощущения человека.
Tes - Эффективная температура на солнце - температура, которую ощущает человек, с поправкой на солнечный нагрев. Характеристика знойности погоды. Зависит от высоты солнца над горизонтом, облачности и скорости ветра. Ночью, в пасмурную погоду, а также при ветре 12 м/с и более поправка равна нулю.
P - Атмосферное давление - приведенное к уровню моря атмосферное давление.
Po - Атмосферное давление - измеренное на уровне метеостанции атмосферное давление.
Tmin - Минимальная температура - минимум температуры воздуха на высоте 2 м над землей.
Tmax - Максимальная температура - максимум температуры воздуха на высоте 2 м над землей.
R - Количество осадков - Количество выпавших осадков за период времени, мм. При наведении курсора мыши на число - период времени, за который выпало указанное количество осадков.
R24 - Количество осадков - Количество выпавших осадков за 24 часа, мм.
S - Снежный покров - Высота снежного покрова, см. При наведении курсора мыши на число - состояние снежного покрова и степень покрытия местности в баллах.